Flag for U.S.A. Weather past 2 weeks in Bakersfield, California, U.S.A.

Now
68 °F

Sunny.


Feels Like: 68 °F
Forecast: 46 / 77 °F
Wind: 5 mph from West

Location: Meadows Field

Current Time: Mar 6, 2015 at 6:45:03 PM

Latest Report: Mar 6, 2015 at 5:54 PM


Visibility: 8 mi

Pressure: 30.13 "Hg

Humidity: 38%

Dew point: 41 °F

Location of BakersfieldLocation

Historic Weather in Bakersfield — Graph

°F

Bakersfield temperature yesterday

Maximum temperature yesterday: 73 °F (at 2:54 PM)
Minimum temperature yesterday: 44 °F (at 6:54 AM)
Average temperature yesterday: 58 °F

Past Weeks' High & Low Weather Summary

 TemperatureHumidityPressure
High73 °F (Mar 5, 2:54 PM)97% (Feb 20, 10:54 PM)30.36 "Hg (Feb 20, 10:54 PM)
Low42 °F (Feb 24, 4:54 AM)25% (Mar 5, 2:54 PM)29.69 "Hg (Feb 27, 5:54 PM)
Average55 °F67%30.01 "Hg
* Reported Feb 19 5:54 PM — Mar 6 5:54 PM, Bakersfield, Weather by CustomWeather, © 2015

Note: Actual official high and low records may vary slightly from our data, if they occured in-between our weather recording intervals... More about our weather records

Advertising

Bakersfield weather history for previous 24 hours

 ConditionsComfort  
Time TempWeatherWind HumidityBarometerVisibility
5:54 PM
Fri, Mar 6
68 °FSunny.5 mph38%30.13 "Hg8 mi
4:54 PM70 °FSunny.No wind34%30.13 "Hg7 mi
3:54 PM70 °FSunny.5 mph34%30.14 "Hg8 mi
2:54 PM70 °FSunny.5 mph34%30.15 "Hg9 mi
1:54 PM68 °FSunny.No wind33%30.18 "Hg9 mi
12:54 PM68 °FSunny.5 mph35%30.21 "Hg9 mi
11:54 AM65 °FSunny.3 mph40%30.24 "Hg9 mi
10:54 AM62 °FSunny.3 mph44%30.27 "Hg10 mi
9:54 AM58 °FSunny.5 mph51%30.29 "Hg10 mi
8:54 AM55 °FSunny.5 mph51%30.29 "Hg10 mi
7:54 AM51 °FSunny.8 mph59%30.29 "Hg10 mi
6:54 AM44 °FSunny.No wind76%30.28 "Hg10 mi
5:54 AM45 °FClear.No wind74%30.27 "Hg10 mi
4:54 AM46 °FClear.No wind73%30.26 "Hg10 mi
3:54 AM47 °FClear.No wind74%30.25 "Hg10 mi
2:54 AM49 °FClear.5 mph71%30.26 "Hg10 mi
1:54 AM48 °FClear.5 mph77%30.27 "Hg10 mi
12:54 AM53 °FClear.5 mph66%30.26 "Hg10 mi
11:54 PM
Thu, Mar 5
53 °FClear.3 mph64%30.27 "Hg10 mi
10:54 PM50 °FClear.No wind68%30.27 "Hg10 mi
9:54 PM60 °FClear.5 mph49%30.27 "Hg10 mi
8:54 PM60 °FClear.8 mph47%30.26 "Hg10 mi
7:54 PM56 °FClear.6 mph60%30.25 "Hg10 mi
6:54 PM59 °FClear.7 mph51%30.25 "Hg10 mi
Weather by CustomWeather, © 2015

See weather overviewHow to use our weather pages